EN

Hourly Weather Alzey

Today, 28 January, Thursday

Time Temperature Precipitation Wind Pressure Humidity
00:00 +1°C° 0 mm 3 mps 740 mmHg 94%
01:00 +2°C° 0 mm 2 mps 740 mmHg 93%
02:00 +2°C° 0 mm 2 mps 740 mmHg 94%
03:00 +2°C° 0 mm 2 mps 739 mmHg 94%
04:00 +2°C° 0 mm 2 mps 738 mmHg 95%
05:00 +2°C° 0.5 mm 2 mps 737 mmHg 96%
06:00 +2°C° 0.5 mm 2 mps 736 mmHg 96%
07:00 +2°C° 0.5 mm 2 mps 736 mmHg 97%
08:00 +3°C° 1.4 mm 2 mps 735 mmHg 97%
09:00 +2°C° 1.4 mm 3 mps 734 mmHg 97%
10:00 +3°C° 1.4 mm 3 mps 733 mmHg 97%
11:00 +4°C° 1.6 mm 4 mps 732 mmHg 96%
12:00 +5°C° 1.6 mm 4 mps 732 mmHg 95%
13:00 +6°C° 1.6 mm 5 mps 731 mmHg 94%
14:00 +7°C° 0.2 mm 6 mps 731 mmHg 91%
15:00 +8°C° 0.2 mm 6 mps 731 mmHg 87%
16:00 +9°C° 0.2 mm 7 mps 731 mmHg 84%
17:00 +9°C° 0.2 mm 7 mps 732 mmHg 84%
18:00 +8°C° 0.2 mm 6 mps 732 mmHg 84%
19:00 +8°C° 0.2 mm 6 mps 733 mmHg 84%
20:00 +8°C° 0 mm 6 mps 733 mmHg 84%
21:00 +8°C° 0 mm 6 mps 734 mmHg 84%
22:00 +8°C° 0 mm 6 mps 734 mmHg 85%
23:00 +7°C° 0 mm 5 mps 734 mmHg 87%

Tomorrow, 29 January, Friday

Time Temperature Precipitation Wind Pressure Humidity
00:00 +7°C° 0 mm 4 mps 734 mmHg 88%
01:00 +7°C° 0 mm 3 mps 734 mmHg 90%
02:00 +7°C° 0.4 mm 3 mps 733 mmHg 92%
03:00 +7°C° 0.4 mm 3 mps 732 mmHg 94%
04:00 +7°C° 0.4 mm 3 mps 731 mmHg 96%
05:00 +7°C° 1.4 mm 4 mps 730 mmHg 95%
06:00 +7°C° 1.4 mm 4 mps 729 mmHg 93%
07:00 +8°C° 1.4 mm 5 mps 728 mmHg 92%
08:00 +8°C° 0.2 mm 6 mps 728 mmHg 88%
09:00 +8°C° 0.2 mm 6 mps 729 mmHg 84%
10:00 +8°C° 0.2 mm 6 mps 729 mmHg 80%
11:00 +8°C° 0 mm 6 mps 730 mmHg 77%
12:00 +8°C° 0 mm 7 mps 730 mmHg 74%
13:00 +8°C° 0 mm 7 mps 731 mmHg 71%
14:00 +8°C° 0.2 mm 7 mps 730 mmHg 71%
15:00 +8°C° 0.2 mm 7 mps 730 mmHg 72%
16:00 +7°C° 0.2 mm 6 mps 730 mmHg 73%
17:00 +6°C° 0.1 mm 7 mps 730 mmHg 76%
18:00 +6°C° 0.1 mm 7 mps 730 mmHg 79%
19:00 +5°C° 0.1 mm 7 mps 730 mmHg 82%
20:00 +5°C° 0.1 mm 6 mps 731 mmHg 80%
21:00 +5°C° 0.1 mm 6 mps 731 mmHg 78%
22:00 +5°C° 0.1 mm 6 mps 732 mmHg 76%
23:00 +5°C° 0 mm 6 mps 732 mmHg 78%

Day after tomorrow, 30 January, Saturday

Time Temperature Precipitation Wind Pressure Humidity
00:00 +6°C° 0 mm 5 mps 732 mmHg 80%
01:00 +6°C° 0 mm 5 mps 732 mmHg 83%
02:00 +5°C° 0.1 mm 6 mps 732 mmHg 83%
03:00 +5°C° 0.1 mm 6 mps 731 mmHg 82%
04:00 +5°C° 0.1 mm 6 mps 731 mmHg 82%
05:00 +5°C° 0.1 mm 6 mps 731 mmHg 82%
06:00 +4°C° 0.1 mm 6 mps 731 mmHg 82%
07:00 +5°C° 0.1 mm 5 mps 730 mmHg 82%
08:00 +5°C° 0.1 mm 4 mps 730 mmHg 82%
09:00 +5°C° 0.1 mm 3 mps 730 mmHg 83%
10:00 +6°C° 0.1 mm 2 mps 730 mmHg 83%
11:00 +6°C° 0.7 mm 2 mps 729 mmHg 86%
12:00 +5°C° 0.7 mm 2 mps 728 mmHg 89%
13:00 +5°C° 0.7 mm 2 mps 728 mmHg 92%
14:00 +3°C° 0.9 mm 3 mps 727 mmHg 92%
15:00 +3°C° 0.9 mm 3 mps 727 mmHg 93%
16:00 +2°C° 0.9 mm 3 mps 726 mmHg 94%
17:00 +2°C° 1 mm 3 mps 726 mmHg 94%
18:00 +2°C° 1 mm 3 mps 726 mmHg 94%
19:00 +2°C° 1 mm 3 mps 726 mmHg 94%
20:00 +1°C° 0.2 mm 3 mps 727 mmHg 93%
21:00 +1°C° 0.2 mm 3 mps 727 mmHg 93%
22:00 0°C° 0.2 mm 3 mps 727 mmHg 92%
23:00 0°C° 0.2 mm 3 mps 727 mmHg 92%

31 January, Sunday

Time Temperature Precipitation Wind Pressure Humidity
00:00 0°C° 0.2 mm 3 mps 728 mmHg 91%
01:00 +1°C° 0.2 mm 2 mps 728 mmHg 91%
02:00 +1°C° 0.1 mm 2 mps 728 mmHg 91%
03:00 +1°C° 0.1 mm 2 mps 728 mmHg 90%
04:00 +2°C° 0.1 mm 1 mps 728 mmHg 90%
05:00 +2°C° 0.1 mm 1 mps 728 mmHg 90%
06:00 +2°C° 0.1 mm 1 mps 729 mmHg 90%
07:00 +2°C° 0.1 mm 1 mps 729 mmHg 90%
08:00 +2°C° 0.2 mm 1 mps 729 mmHg 91%
09:00 +2°C° 0.2 mm 1 mps 729 mmHg 92%
10:00 +2°C° 0.2 mm 1 mps 729 mmHg 93%
11:00 +2°C° 0 mm 1 mps 729 mmHg 92%
12:00 +3°C° 0 mm 1 mps 729 mmHg 91%
13:00 +3°C° 0 mm 1 mps 729 mmHg 90%
14:00 +3°C° 0.1 mm 1 mps 728 mmHg 90%
15:00 +3°C° 0.1 mm 1 mps 728 mmHg 90%
16:00 +4°C° 0.1 mm 1 mps 727 mmHg 91%
17:00 +3°C° 0.1 mm 1 mps 727 mmHg 91%
18:00 +3°C° 0.1 mm 1 mps 726 mmHg 92%
19:00 +3°C° 0.1 mm 1 mps 726 mmHg 93%
20:00 +3°C° 0.2 mm 1 mps 726 mmHg 93%
21:00 +2°C° 0.2 mm 2 mps 725 mmHg 94%
22:00 +2°C° 0.2 mm 2 mps 725 mmHg 94%
23:00 +2°C° 0.2 mm 2 mps 725 mmHg 94%

1 February, Monday

Time Temperature Precipitation Wind Pressure Humidity
00:00 +2°C° 0.2 mm 2 mps 724 mmHg 95%
01:00 +2°C° 0.2 mm 2 mps 724 mmHg 95%
02:00 +2°C° 0.1 mm 2 mps 724 mmHg 95%
03:00 +2°C° 0.1 mm 2 mps 724 mmHg 95%
04:00 +4°C° 0.1 mm 1 mps 723 mmHg 95%
05:00 +3°C° 0.3 mm 2 mps 724 mmHg 95%
06:00 +3°C° 0.3 mm 2 mps 724 mmHg 95%
07:00 +3°C° 0.3 mm 2 mps 725 mmHg 95%
08:00 +3°C° 0.1 mm 2 mps 726 mmHg 95%
09:00 +3°C° 0.1 mm 2 mps 726 mmHg 94%
10:00 +3°C° 0.1 mm 2 mps 727 mmHg 93%
11:00 +4°C° 0.1 mm 2 mps 728 mmHg 92%
12:00 +4°C° 0.1 mm 2 mps 729 mmHg 90%
13:00 +5°C° 0.1 mm 1 mps 730 mmHg 88%
14:00 +5°C° 0 mm 1 mps 730 mmHg 87%
15:00 +5°C° 0 mm 1 mps 731 mmHg 87%
16:00 +5°C° 0 mm 1 mps 732 mmHg 86%
17:00 +5°C° 0 mm 1 mps 733 mmHg 87%
18:00 +5°C° 0 mm 1 mps 734 mmHg 88%
19:00 +4°C° 0 mm 1 mps 735 mmHg 89%
20:00 +4°C° 0 mm 1 mps 736 mmHg 89%
21:00 +4°C° 0 mm 1 mps 737 mmHg 89%
22:00 +4°C° 0 mm 1 mps 737 mmHg 89%
23:00 +4°C° 0 mm 1 mps 738 mmHg 88%

2 February, Tuesday

Time Temperature Precipitation Wind Pressure Humidity
00:00 +3°C° 0 mm 1 mps 739 mmHg 88%
01:00 +2°C° 0 mm 0 mps 739 mmHg 87%
02:00 +3°C° 0 mm 1 mps 739 mmHg 87%
03:00 +3°C° 0 mm 1 mps 739 mmHg 87%
04:00 +3°C° 0 mm 1 mps 740 mmHg 87%
05:00 +3°C° 0 mm 1 mps 740 mmHg 87%
06:00 +3°C° 0 mm 1 mps 740 mmHg 88%
07:00 +3°C° 0 mm 1 mps 740 mmHg 88%
08:00 +3°C° 0 mm 1 mps 740 mmHg 88%
09:00 +3°C° 0 mm 2 mps 739 mmHg 89%
10:00 +3°C° 0 mm 2 mps 739 mmHg 89%
11:00 +4°C° 0.5 mm 2 mps 738 mmHg 90%
12:00 +3°C° 0.5 mm 3 mps 738 mmHg 92%
13:00 +3°C° 0.5 mm 3 mps 737 mmHg 93%
14:00 +4°C° 0.2 mm 4 mps 736 mmHg 93%
15:00 +5°C° 0.2 mm 4 mps 735 mmHg 93%
16:00 +5°C° 0.2 mm 5 mps 735 mmHg 93%
17:00 +6°C° 0.5 mm 5 mps 735 mmHg 92%
18:00 +7°C° 0.5 mm 5 mps 735 mmHg 92%
19:00 +7°C° 0.5 mm 5 mps 734 mmHg 92%
20:00 +8°C° 0.5 mm 5 mps 735 mmHg 92%
21:00 +8°C° 0.5 mm 5 mps 735 mmHg 91%
22:00 +8°C° 0.5 mm 5 mps 735 mmHg 91%
23:00 +8°C° 0.2 mm 4 mps 735 mmHg 90%
Show more